Simultaneous Nadir Overpasses (SNOs) Predictions

Prediction of SNOs between GOES-14 and NPP Satellite Orbit:

Table of predicted SNOs for the next 14.0 days since TLE Epoch: 11/12/2022
Index Date Time (GOES-14) GOES-14 Lat,Lon NPP Lat,Lon Distance(km) Time Diff (sec)
1 11/12/2022 20:11:52 -0.07,-104.12 0.59,-101.26 326.40 80
2 11/14/2022 08:33:40 0.04,-104.34 0.55,-106.53 249.85 80
3 11/15/2022 08:12:14 0.06,-104.33 -0.46,-101.99 265.65 80
4 11/16/2022 20:34:09 -0.03,-104.08 -0.72,-107.29 365.86 80
5 11/17/2022 20:18:04 -0.04,-104.08 0.29,-102.75 152.14 80
6 11/19/2022 08:39:51 0.01,-104.35 0.85,-108.03 419.46 80
7 11/20/2022 08:18:26 0.03,-104.33 -0.17,-103.49 96.42 80
8 11/22/2022 20:21:35 -0.02,-104.05 -0.04,-104.24 20.78 80
9 11/23/2022 20:05:29 -0.03,-104.06 0.97, -99.70 497.03 80
10 11/25/2022 08:27:16 0.01,-104.33 0.15,-104.98 73.59 80
